CW6421 Weather Reports


time (UTC)temp
C
wind
direction
speed
KPH
gust
KPH
rain 1hr
cm
rain 24hr
cm
rain mn
cm
humidity
%
barometer
mb
20260504050528 17 230 17.7 20.9 0.00 0.00 0.00 60 1011.6
20260504045526 17 213 16.1 17.7 0.00 0.00 0.00 60 1011.6
20260504044528 17 228 16.1 17.7 0.00 0.00 0.00 60 1011.6
20260504043526 17 213 12.9 14.5 0.00 0.00 0.00 59 1011.6
20260504042528 17 224 14.5 16.1 0.00 0.00 0.00 60 1011.6
20260504041529 17 234 12.9 17.7 0.00 0.00 0.00 60 1011.6
20260504040527 17 232 11.3 12.9 0.00 0.00 0.00 60 1011.7
20260504035526 17 237 9.7 12.9 0.00 0.00 0.00 60 1011.7
20260504034528 17 256 9.7 12.9 0.00 0.00 0.00 59 1011.7
20260504033527 17 264 9.7 12.9 0.00 0.00 0.00 58 1011.7
20260504032527 17 258 9.7 14.5 0.00 0.00 0.00 57 1011.7
20260504025527 18 252 9.7 12.9 0.00 0.00 0.00 54 1011.7
20260504023526 18 255 14.5 16.1 0.00 0.00 0.00 53 1011.7
20260504022525 18 267 14.5 16.1 0.00 0.00 0.00 51 1011.7
20260504020528 18 276 8.0 32.2 0.00 0.00 0.00 50 1011.0
20260504015526 18 281 12.9 32.2 0.00 0.00 0.00 50 1011.0
20260504014528 18 249 11.3 32.2 0.00 0.00 0.00 50 1011.0
20260504013526 18 258 11.3 32.2 0.00 0.00 0.00 49 1011.0
20260504012526 19 246 11.3 29.0 0.00 0.00 0.00 49 1011.0
20260504010526 19 295 11.3 38.6 0.00 0.00 0.00 48 1010.9
20260504005527 19 280 11.3 38.6 0.00 0.00 0.00 47 1010.9
20260504004528 19 308 16.1 38.6 0.00 0.00 0.00 47 1010.9
20260504003525 20 302 16.1 32.2 0.00 0.00 0.00 47 1010.9
20260504000526 20 298 22.5 25.7 0.00 0.00 0.00 45 1010.7
20260503235526 20 290 24.1 29.0 0.00 0.00 0.00 44 1010.7
20260503233527 21 299 19.3 29.0 0.00 0.00 0.00 43 1010.7
20260503232526 21 287 24.1 27.4 0.00 0.00 0.00 43 1010.7
20260503231528 21 276 16.1 27.4 0.00 0.00 0.00 43 1010.7
20260503230527 21 277 12.9 16.1 0.00 0.00 0.00 43 1010.8
20260503224529 21 255 8.0 9.7 0.00 0.00 0.00 43 1010.8
20260503223527 21 255 8.0 9.7 0.00 0.00 0.00 43 1010.8
20260503222527 21 250 11.3 16.1 0.00 0.00 0.00 45 1010.6
20260503221530 21 240 9.7 16.1 0.00 0.00 0.00 46 1010.6
20260503220527 20 241 8.0 16.1 0.00 0.00 0.00 49 1010.6
20260503214529 20 257 4.8 17.7 0.00 0.00 0.00 49 1010.6
20260503213526 20 249 4.8 16.1 0.00 0.00 0.00 49 1010.6
20260503212528 20 259 3.2 17.7 0.00 0.00 0.00 49 1010.6
20260503211529 20 284 3.2 17.7 0.00 0.00 0.00 49 1010.6
20260503210528 20 296 4.8 19.3 0.00 0.00 0.00 48 1010.3
20260503205527 20 284 4.8 17.7 0.00 0.00 0.00 47 1010.3
20260503204529 21 255 9.7 20.9 0.00 0.00 0.00 46 1010.3
20260503203526 21 260 12.9 20.9 0.00 0.00 0.00 46 1010.3
20260503202526 21 257 11.3 20.9 0.00 0.00 0.00 44 1010.3
20260503201528 21 265 14.5 19.3 0.00 0.00 0.00 44 1010.3
20260503200527 22 255 12.9 14.5 0.00 0.00 0.00 43 1010.0
20260503195527 22 257 12.9 16.1 0.00 0.00 0.00 42 1010.0
20260503194528 22 130 4.8 8.0 0.00 0.00 0.00 43 1010.0
20260503193528 21 135 4.8 9.7 0.00 0.00 0.00 44 1010.0
20260503192527 21 136 3.2 9.7 0.00 0.00 0.00 43 1010.0
20260503191528 22 142 0.0 9.7 0.00 0.00 0.00 42 1010.0
20260503190527 22 237 0.0 16.1 0.00 0.00 0.00 41 1009.7
20260503185527 23 238 3.2 16.1 0.00 0.00 0.00 40 1009.7
20260503184530 23 234 9.7 14.5 0.00 0.00 0.00 39 1009.7
20260503183527 23 225 8.0 14.5 0.00 0.00 0.00 38 1009.7
20260503182527 24 223 6.4 16.1 0.00 0.00 0.00 37 1009.7
20260503181529 24 244 9.7 17.7 0.00 0.00 0.00 35 1009.7
20260503180528 25 245 12.9 24.1 0.00 0.00 0.00 35 1009.8
20260503175527 25 241 11.3 20.9 0.00 0.00 0.00 34 1009.8
20260503174530 25 238 11.3 22.5 0.00 0.00 0.00 33 1009.8
20260503173527 26 240 12.9 20.9 0.00 0.00 0.00 32 1009.8
20260503171531 26 225 11.3 25.7 0.00 0.00 0.00 31 1009.8
20260503170527 26 235 9.7 24.1 0.00 0.00 0.00 30 1009.9
20260503150529 28 277 16.1 35.4 0.00 0.00 0.00 30 1011.0
20260503130527 29 250 25.7 38.6 0.00 0.00 0.00 31 1012.0
20260503110528 29 216 17.7 22.5 0.00 0.00 0.00 31 1013.1
20260503081529 21 180 9.7 14.5 0.00 0.00 0.00 49 1013.8
20260503071530 17 181 6.4 9.7 0.00 0.00 0.00 54 1013.9
20260503070527 17 183 6.4 12.9 0.00 0.00 0.00 55 1014.0